TimePST,TemperatureF,Dew PointF,Humidity,Sea Level PressureIn,VisibilityMPH,Wind Direction,Wind SpeedMPH,Gust SpeedMPH,PrecipitationIn,Events,Conditions,WindDirDegrees,DateUTC
12:56 AM,32.0,28.9,88,30.13,10.0,Calm,Calm,-,N/A,,Clear,0,2013-01-22 08:56:00
1:56 AM,32.0,28.0,85,30.13,10.0,Calm,Calm,-,N/A,,Clear,0,2013-01-22 09:56:00
2:56 AM,32.0,28.9,88,30.12,10.0,Calm,Calm,-,N/A,,Clear,0,2013-01-22 10:56:00
3:56 AM,30.9,28.0,89,30.11,10.0,Calm,Calm,-,N/A,,Clear,0,2013-01-22 11:56:00
4:56 AM,30.9,28.0,89,30.11,10.0,Calm,Calm,-,N/A,,Clear,0,2013-01-22 12:56:00
5:56 AM,30.0,27.0,88,30.11,10.0,Calm,Calm,-,N/A,,Clear,0,2013-01-22 13:56:00
6:56 AM,28.9,27.0,92,30.11,8.0,Calm,Calm,-,N/A,,Clear,0,2013-01-22 14:56:00
7:56 AM,28.0,26.1,92,30.12,10.0,Calm,Calm,-,N/A,,Clear,0,2013-01-22 15:56:00
8:56 AM,30.9,28.9,92,30.13,10.0,Calm,Calm,-,N/A,,Clear,0,2013-01-22 16:56:00
9:56 AM,37.9,32.0,79,30.14,10.0,Calm,Calm,-,N/A,,Clear,0,2013-01-22 17:56:00
10:56 AM,42.1,33.1,70,30.14,10.0,Calm,Calm,-,N/A,,Clear,0,2013-01-22 18:56:00
11:56 AM,48.9,33.1,54,30.10,10.0,Calm,Calm,-,N/A,,Clear,0,2013-01-22 19:56:00
12:56 PM,54.0,32.0,43,30.06,10.0,Calm,Calm,-,N/A,,Clear,0,2013-01-22 20:56:00
1:56 PM,60.1,28.0,30,30.02,10.0,Calm,Calm,-,N/A,,Clear,0,2013-01-22 21:56:00
2:56 PM,60.1,30.0,32,30.01,10.0,Calm,Calm,-,N/A,,Clear,0,2013-01-22 22:56:00
3:56 PM,57.9,34.0,41,29.99,10.0,Calm,Calm,-,N/A,,Clear,0,2013-01-22 23:56:00
4:56 PM,55.0,39.9,57,29.98,9.0,Calm,Calm,-,N/A,,Clear,0,2013-01-23 00:56:00
5:56 PM,52.0,37.9,59,29.99,10.0,Calm,Calm,-,N/A,,Clear,0,2013-01-23 01:56:00
6:56 PM,48.0,37.9,68,30.01,10.0,Calm,Calm,-,N/A,,Clear,0,2013-01-23 02:56:00
7:56 PM,46.0,37.0,71,30.00,10.0,Calm,Calm,-,N/A,,Clear,0,2013-01-23 03:56:00
8:56 PM,46.0,37.0,71,30.02,10.0,Calm,Calm,-,N/A,,Clear,0,2013-01-23 04:56:00
9:56 PM,43.0,37.0,80,30.03,10.0,Calm,Calm,-,N/A,,Clear,0,2013-01-23 05:56:00
10:56 PM,43.0,37.0,80,30.03,10.0,Calm,Calm,-,N/A,,Clear,0,2013-01-23 06:56:00
11:56 PM,41.0,36.0,82,30.02,10.0,Calm,Calm,-,N/A,,Clear,0,2013-01-23 07:56:00